sat.trackr.live / text

‹ back to catalog

STARLINK-35072

NORAD 65505 · 2025-198P

PAYLOAD ACTIVE UNKNOWN

§ Identity

Operator
Country
US
Launch date
2025-09-05
Launch site
AFETR
Launch vehicle
Mass (kg)
RCS (m²)

Purposes: comms

External: N2YO · Heavens-Above · Gunter

§ Orbital elements

Epoch: 2026-05-24T20:16:18.452064Z

Period
93.85 min
Inclination
53.1588°
Eccentricity
0.0000773
Mean motion
15.34425842 rev/d
Perigee alt
462.1 km
Apogee alt
463.2 km
Semi-major
6,840.8 km
B*
1.6278e-3
RAAN
276.2776°
Arg perigee
93.5107°
Mean anomaly
266.5984°
Rev number
4,029

§ Raw data

STARLINK-350721 65505U 25198P   26144.84465801  .00055071  00000+0  16278-2 0  99922 65505  53.1588 276.2776 0000773  93.5107 266.5984 15.34425842 40295

JSON: /api/v1/satellites/65505 · /tle

For live sub-satellite position, see the globe view (requires WebGL).

§ Visibility from observer

Set your observer location to see the next 7 days of passes ≥ 10°. The values pass through the URL so the page stays shareable.

No JS? Fill the form by hand. The geolocation button needs JavaScript.